Houghton, MI

2:14 AM EDT on October 21, 2017 (GMT -0400)
Houghton County Memorial

Weather History for KCMX - March, 2013

Change the Weather History Date:

Monday, March 4, 2013

  Actual Average Record
Temperature  
Mean Temperature 10 °F -  
Max Temperature 24 °F 28 °F 40 °F (1987)
Min Temperature -5 °F 13 °F -11 °F (2014)
Degree Days  
Heating Degree Days 56    
Moisture  
Dew Point 12 °F    
Average Humidity 79    
Maximum Humidity 95    
Minimum Humidity 65    
Precipitation  
Precipitation 0.00 in - - ()
Sea Level Pressure  
Sea Level Pressure 30.18 in    
Wind  
Wind Speed 6 mph (ENE)    
Max Wind Speed 14 mph    
Max Gust Speed 21 mph    
Visibility 10 miles    
Events      
Averages and records for this station are not official NWS values.
T = Trace of Precipitation, MM = Missing Value Source: NWS Daily Summary

Daily Weather History Graph

Daily Weather History Graph

Search for Another Location

Airport or City:

Trip Planner

Search our weather history database for the weather conditions in past years. The results will help you decide how hot, cold, wet, or windy it might be!

Date:

Astronomy

Mar. 04, 2013 Rise Set
Actual Time 7:27 AM EST 6:44 PM EST
Civil Twilight 6:57 AM EST 7:14 PM EST
Nautical Twilight 6:22 AM EST 7:50 PM EST
Astronomical Twilight 5:46 AM EST 8:25 PM EST
Moon 1:53 AM EST (3/4) 11:08 AM EST (3/4)
Length of Visible Light 12h 17m
Length of Day
11h 16m
Waning Gibbous, 52% of the Moon is Illuminated
Mar 4
Waning Gibbous
Mar 4
Last Quarter
Mar 11
New
Mar 19
First Quarter
Mar 27
Full

Hourly Weather History & Observations

Time (EST) Temp. Windchill Dew Point Humidity Pressure Visibility Wind Dir Wind Speed Gust Speed Precip Events Conditions
12:53 AM -0.9 °F - -2.9 °F 91% 30.17 in 10.0 mi Calm Calm - N/A   Clear
1:53 AM 1.9 °F - -0.0 °F 91% 30.17 in 10.0 mi Calm Calm - N/A   Clear
2:53 AM -5.1 °F - -7.1 °F 91% 30.18 in 10.0 mi Calm Calm - N/A   Clear
3:53 AM 6.1 °F -2.8 °F 5.0 °F 95% 30.17 in 10.0 mi NNE 4.6 mph - N/A   Clear
4:53 AM 12.9 °F 3.8 °F 10.0 °F 88% 30.17 in 10.0 mi NE 5.8 mph - N/A   Clear
5:53 AM 12.2 °F 2.9 °F 10.4 °F 92% 30.12 in 10.0 mi NE 5.8 mph - N/A   Clear
6:53 AM 14.0 °F 2.9 °F 10.0 °F 84% 30.19 in 10.0 mi NE 8.1 mph - N/A   Clear
7:53 AM 16.0 °F 5.3 °F 12.0 °F 84% 30.19 in 10.0 mi NE 8.1 mph - N/A   Clear
8:53 AM 17.1 °F 5.8 °F 12.0 °F 81% 30.21 in 10.0 mi ENE 9.2 mph - N/A   Clear
9:15 AM 17.6 °F 5.7 °F 12.2 °F 79% 30.14 in 10.0 mi ENE 10.4 mph - N/A   Mostly Cloudy
9:53 AM 19.0 °F 9.0 °F 14.0 °F 81% 30.22 in 10.0 mi NE 8.1 mph - N/A   Overcast
10:53 AM 19.9 °F 10.1 °F 15.1 °F 81% 30.23 in 10.0 mi NE 8.1 mph - N/A   Overcast
11:23 AM 21.2 °F 11.7 °F 15.8 °F 80% 30.15 in 10.0 mi ENE 8.1 mph - N/A   Overcast
11:50 AM 21.2 °F 9.5 °F 15.8 °F 80% 30.15 in 10.0 mi ENE 11.5 mph - N/A   Overcast
11:53 AM 21.9 °F 11.7 °F 16.0 °F 78% 30.23 in 10.0 mi East 9.2 mph - N/A   Overcast
12:38 PM 23.0 °F 11.7 °F 15.8 °F 74% 30.15 in 10.0 mi East 11.5 mph 18.4 mph N/A   Overcast
12:53 PM 23.0 °F 10.6 °F 16.0 °F 74% 30.22 in 10.0 mi East 13.8 mph 17.3 mph N/A   Overcast
1:53 PM 24.1 °F 13.1 °F 16.0 °F 71% 30.20 in 10.0 mi SE 11.5 mph - N/A   Mostly Cloudy
2:53 PM 24.1 °F 12.5 °F 16.0 °F 71% 30.19 in 10.0 mi East 12.7 mph 18.4 mph N/A   Mostly Cloudy
3:20 PM 24.8 °F 13.4 °F 15.8 °F 69% 30.11 in 10.0 mi East 12.7 mph 20.7 mph N/A   Scattered Clouds
3:53 PM 24.1 °F 12.5 °F 15.1 °F 69% 30.18 in 10.0 mi ESE 12.7 mph - N/A   Clear
4:53 PM 24.1 °F 12.5 °F 14.0 °F 65% 30.18 in 10.0 mi East 12.7 mph - N/A   Clear
5:53 PM 23.0 °F 13.1 °F 15.1 °F 72% 30.19 in 10.0 mi East 9.2 mph - N/A   Clear
6:53 PM 21.9 °F 11.7 °F 14.0 °F 72% 30.20 in 10.0 mi East 9.2 mph - N/A   Clear
7:53 PM 19.9 °F 11.1 °F 12.9 °F 74% 30.21 in 10.0 mi East 6.9 mph - N/A   Clear
8:53 PM 19.0 °F 9.0 °F 14.0 °F 81% 30.21 in 10.0 mi ENE 8.1 mph - N/A   Mostly Cloudy
9:08 PM 19.4 °F 9.5 °F 14.0 °F 80% 30.15 in 10.0 mi ENE 8.1 mph - N/A   Scattered Clouds
9:53 PM 19.0 °F 8.2 °F 14.0 °F 81% 30.21 in 10.0 mi ENE 9.2 mph - N/A   Partly Cloudy
10:53 PM 19.0 °F 10.0 °F 12.9 °F 77% 30.19 in 10.0 mi ENE 6.9 mph - N/A   Clear
11:53 PM 19.0 °F 12.3 °F 12.9 °F 77% 30.19 in 10.0 mi ENE 4.6 mph - N/A   Clear